User: anonymous   Login
Location: Unspecified
(0.0000°N, 0.0000°E)
Time: 15:39:21
(UTC+00:00)
Language:

NOSS 2-1 (D) - Orbit

View from above orbital plane
View from above orbital plane
View from above satellite
View from above satellite

Ground track
Ground track

The orbit data is extracted from the following two-line orbital elements,

1 20692U 90050D   17199.91599439 0.00000070  00000-0  17645-4 0    06
2 20692  63.3440 110.9000 0793000  31.4670 328.5330 13.41700411    08
Epoch (UTC): 18 July 2017 21:59:01
Eccentricity: 0.0793000
inclination: 63.3440°
perigee height: 510 km
apogee height: 1696 km
right ascension of ascending node: 110.9000°
argument of perigee: 31.4670°
revolutions per day: 13.41700411
mean anomaly at epoch: 328.5330°
orbit number at epoch: 0

The dashed part of the orbit path shows where the satellite is in the earth's shadow,  

DLR